Hlavní strana
METAR-TAF:

METAR-TAF

Letiště :

Williamson County Regional Airport

Marion, Illinois, Spojené státy americké

zeměpisná šířka: 37-45-01N, zeměpisná délka: 089-00-04W, výška: 144 m

Aktuální stav počasí

Zpráva byla vytvořena před 2 hodinami a 5 minutami, v 17:45 UTC
Severoseverovýchodní vítr 6 kt
Teplota 15°C
Vlhkost vzduchu 55%
Tlak 1022 hPa
Viditelnost: 32.2 km
Oblačno až skoro zataženo ve výšce 6000 ft
Zataženo ve výšce 7500 ft

METAR: KMWA 131745Z 02006KT 20SM BKN060 OVC075 15/06 A3018

Čas: 14:50 (19:50 UTC)


TAF: chybějící

Stav a předpovědi počasí z více než 4 000 letišť (zprávy METAR a TAF).

Červené a žluté tečky na mapě představují dostupné meteorologické stanice.

Když kurzor umístíte na tečku, zobrazí se název stanice.

Pak kliknutím zobrazíte stav a předpověď počasí.

Chcete-li změnit mapu, kliknutím na zelené tlačítko se znaménkem +mapu přiblížíte, kliknutím na zelené tlačítko se znaménkem – mapu oddálíte a kliknutím na zelené šipky přejdete na sousední mapy.


METAR-TAF: